This is the latest recevied weather packets stored in our database for station/object DL9GJ-6. If no packets are shown the sender has not sent any weather packets the latest 10 day(s).
| Time | Temp. | Humidity | Pressure | Rain* | Wind** | Luminosity | Snow |
|---|---|---|---|---|---|---|---|
| 1777887132 | 20.56° C | 55% | 1012.6 hPa | 0 mm | - | 689 W/m² | - |
| 1777886783 | 20° C | 52% | 1012.7 hPa | 0 mm | - | 723 W/m² | - |
| 1777886423 | 20° C | 52% | 1012.7 hPa | 0 mm | - | 622 W/m² | - |
| 1777886410 | 20° C | 52% | 1012.7 hPa | 0 mm | - | 622 W/m² | - |
| 1777886063 | 20° C | 52% | 1012.8 hPa | 0 mm | - | 629 W/m² | - |
| 1777885704 | 20° C | 53% | 1012.8 hPa | 0 mm | - | 712 W/m² | - |
| 1777885343 | 20° C | 53% | 1012.9 hPa | 0 mm | - | 681 W/m² | - |
| 1777884984 | 19.44° C | 54% | 1012.9 hPa | 0 mm | - | 690 W/m² | - |
| 1777884970 | 19.44° C | 54% | 1012.9 hPa | 0 mm | - | 690 W/m² | - |
| 1777884623 | 19.44° C | 54% | 1013 hPa | 0 mm | - | 656 W/m² | - |
| 1777884609 | 19.44° C | 54% | 1013 hPa | 0 mm | - | 656 W/m² | - |
| 1777884262 | 19.44° C | 54% | 1013.1 hPa | 0 mm | - | 692 W/m² | - |
| 1777883903 | 19.44° C | 53% | 1013.1 hPa | 0 mm | - | 681 W/m² | - |
| 1777883890 | 19.44° C | 53% | 1013.1 hPa | 0 mm | - | 681 W/m² | - |
| 1777883542 | 18.89° C | 55% | 1013.2 hPa | 0 mm | - | 652 W/m² | - |
| 1777883183 | 18.89° C | 55% | 1013.2 hPa | 0 mm | - | 635 W/m² | - |
| 1777882822 | 18.89° C | 57% | 1013.3 hPa | 0 mm | - | 494 W/m² | - |
| 1777882462 | 18.33° C | 60% | 1013.4 hPa | 0 mm | - | 545 W/m² | - |
| 1777882102 | 18.33° C | 60% | 1013.6 hPa | 0 mm | - | 531 W/m² | - |
| 1777881744 | 18.33° C | 61% | 1013.6 hPa | 0 mm | - | 455 W/m² | - |
| 1777881734 | 18.33° C | 61% | 1013.6 hPa | 0 mm | - | 455 W/m² | - |
| 1777881384 | 18.33° C | 60% | 1013.5 hPa | 0 mm | - | 512 W/m² | - |
| 1777881371 | 18.33° C | 60% | 1013.5 hPa | 0 mm | - | 512 W/m² | - |
| 1777881023 | 17.78° C | 63% | 1013.5 hPa | 0 mm | - | 571 W/m² | - |
| 1777880663 | 17.22° C | 63% | 1013.6 hPa | 0 mm | - | 511 W/m² | - |
* Rain latest hour (hover to see other rain measurements)
** Current wind speed in m/s (hover to see current wind gust speed)